Regional Weather Roundup
Issued by NWS

Home | Current Version | Previous Version | Graphics & Text | Print | Product List | Glossary On
Versions: 1 2 3 4 5 6 7 8 9 10 11 12 13 14 15 16 17 18 19 20 21 22 23 24 25 26 27 28 29 30 31 32 33 34 35 36 37 38 39 40 41 42 43 44 45 46 47 48 49 50
000
ASUS43 KFSD 221502
RWRSD

WEATHER ROUNDUP FOR SOUTH DAKOTA
NATIONAL WEATHER SERVICE SIOUX FALLS SD
900 AM CST THU FEB 22 2018

NOTE: "FAIR" INDICATES FEW OR NO CLOUDS BELOW 12,000 FEET WITH NO
SIGNIFICANT WEATHER AND/OR OBSTRUCTIONS TO VISIBILITY.


SDZ001>005-009-010-012>017-221600-
NORTHWEST AND NORTH CENTRAL SOUTH DAKOTA

CITY           SKY/WX    TMP DP  RH WIND       PRES   REMARKS
BUFFALO          N/A     -3  -8  79 CALM      30.07R
FAITH            N/A     -5  -9  83 CALM      30.20R
MOBRIDGE       FAIR      -6 -10  83 CALM      30.28R
$$

SDZ012>016-024>037-041>051-057-063-072>074-221600-
SOUTHWEST AND SOUTH CENTRAL SOUTH DAKOTA

CITY           SKY/WX    TMP DP  RH WIND       PRES   REMARKS
RAPID CTY ARPT PTSUNNY    1  -4  79 CALM      30.14R
PIERRE         FAIR       5   3  91 SE7       30.30S WCI  -7
CUSTER         FAIR       4  -1  80 NW6       29.99S WCI  -7
ELLSWORTH AFB  FAIR      -1  -6  81 CALM      30.13R
PHILIP         PTSUNNY   -3  -7  82 W6        30.23F WCI -15
PINE RIDGE     PTSUNNY   18  11  74 S10       30.13S WCI   6
SPEARFISH        N/A     12   1  62 SW5       30.09R WCI   4
WINNER         CLOUDY    21  15  78 S8        30.29F WCI  11
$$

SDZ004>011-016>023-039-040-221600-
NORTHEAST SOUTH DAKOTA

CITY           SKY/WX    TMP DP  RH WIND       PRES   REMARKS
ABERDEEN       FAIR       4  -2  76 CALM      30.41R
WATERTOWN      CLOUDY    16  10  77 S10       30.40S WCI   4
BROOKINGS      FLURRIES  17  13  84 SE10      30.44S WCI   5
SISSETON         N/A      5   0  79 SE9       30.44F WCI  -9
$$

SDZ017-020-022-023-036>040-048>070-221600-
SOUTHEAST SOUTH DAKOTA

CITY           SKY/WX    TMP DP  RH WIND       PRES   REMARKS
SIOUX FALLS    CLOUDY    19  16  88 E6        30.45R WCI  11
HURON          CLOUDY    18  12  77 SE12      30.41S WCI   5
CHAMBERLAIN    CLOUDY    20  17  88 E7        30.34F WCI  11
MITCHELL       CLOUDY    19  14  81 SE13      30.42F WCI   6
YANKTON        CLOUDY    19  16  88 E9        30.42S WCI   8
$$

ABBREVIATIONS USED IN REMARKS
   TC - TEMPERATURE IN CELSIUS
  WCI - WIND CHILL INDEX
   HX - HEAT INDEX
  VSB - VISIBILITY





USA.gov is the U.S. government's official web portal to all federal, state and local government web resources and services.